Time,TemperatureF,DewpointF,PressureIn,WindDirection,WindDirectionDegrees,WindSpeedMPH,WindSpeedGustMPH,Humidity,HourlyPrecipIn,Conditions,Clouds,dailyrainin,SoftwareType,DateUTC
2014-09-02 00:00:00,70.3,39.0,28.64,SSW,205,0.0,0.0,32,0.00,,,-99.99,wx200d/1.3,2014-09-02 04:00:00,
2014-09-02 00:02:00,70.2,39.0,28.64,SSW,196,0.0,0.0,32,0.00,,,-99.99,wx200d/1.3,2014-09-02 04:02:00,
2014-09-02 00:04:00,70.2,39.0,28.64,South,190,0.0,0.0,32,0.00,,,-99.99,wx200d/1.3,2014-09-02 04:04:00,
2014-09-02 00:06:00,70.2,39.0,28.64,SSE,157,0.0,0.0,32,0.00,,,-99.99,wx200d/1.3,2014-09-02 04:06:00,
2014-09-02 00:08:00,70.2,39.0,28.64,SSE,157,0.0,0.0,32,0.00,,,-99.99,wx200d/1.3,2014-09-02 04:08:00,
2014-09-02 00:10:00,70.2,39.0,28.64,South,176,0.0,0.0,32,0.00,,,-99.99,wx200d/1.3,2014-09-02 04:10:00,
2014-09-02 00:16:00,70.0,39.0,28.64,South,186,0.0,0.0,32,0.00,,,-99.99,wx200d/1.3,2014-09-02 04:16:00,
2014-09-02 00:22:00,70.0,39.0,28.64,SSE,168,0.0,2.7,32,0.00,,,-99.99,wx200d/1.3,2014-09-02 04:22:00,
2014-09-02 00:28:00,70.0,39.0,28.64,South,190,0.0,0.0,32,0.00,,,-99.99,wx200d/1.3,2014-09-02 04:28:00,
2014-09-02 00:34:00,69.8,39.0,28.64,SSW,199,0.0,0.0,33,0.00,,,-99.99,wx200d/1.3,2014-09-02 04:34:00,
2014-09-02 00:40:00,69.8,39.0,28.64,South,189,0.0,0.0,33,0.00,,,-99.99,wx200d/1.3,2014-09-02 04:40:00,
2014-09-02 00:46:00,69.8,39.0,28.64,SSW,203,0.0,0.0,33,0.00,,,-99.99,wx200d/1.3,2014-09-02 04:46:00,
2014-09-02 00:52:00,69.6,39.0,28.64,South,185,0.0,0.0,33,0.00,,,-99.99,wx200d/1.3,2014-09-02 04:52:00,
2014-09-02 00:58:00,69.6,39.0,28.64,SSW,213,0.0,0.0,33,0.00,,,-99.99,wx200d/1.3,2014-09-02 04:58:00,
2014-09-02 01:04:00,69.6,39.0,28.64,SSW,210,0.0,0.0,33,0.00,,,-99.99,wx200d/1.3,2014-09-02 05:04:00,
2014-09-02 01:10:00,69.6,41.0,28.64,SSE,160,0.0,2.7,34,0.00,,,-99.99,wx200d/1.3,2014-09-02 05:10:00,
2014-09-02 01:16:00,69.6,41.0,28.61,SSW,194,0.0,0.0,34,0.00,,,-99.99,wx200d/1.3,2014-09-02 05:16:00,
2014-09-02 01:22:00,69.6,41.0,28.61,SE,124,0.0,0.0,34,0.00,,,-99.99,wx200d/1.3,2014-09-02 05:22:00,
2014-09-02 01:28:00,69.6,41.0,28.61,SW,217,0.0,0.0,34,0.00,,,-99.99,wx200d/1.3,2014-09-02 05:28:00,
2014-09-02 01:34:00,69.6,41.0,28.61,SW,233,0.0,0.0,34,0.00,,,-99.99,wx200d/1.3,2014-09-02 05:34:00,
2014-09-02 01:40:00,69.6,41.0,28.61,SW,233,0.0,0.0,35,0.00,,,-99.99,wx200d/1.3,2014-09-02 05:40:00,
2014-09-02 01:46:00,69.6,41.0,28.61,SSW,193,0.0,0.0,35,0.00,,,-99.99,wx200d/1.3,2014-09-02 05:46:00,
2014-09-02 01:52:00,69.6,41.0,28.61,South,184,0.0,0.0,35,0.00,,,-99.99,wx200d/1.3,2014-09-02 05:52:00,
2014-09-02 01:58:00,69.6,41.0,28.61,SW,216,0.0,0.0,35,0.00,,,-99.99,wx200d/1.3,2014-09-02 05:58:00,
2014-09-02 02:04:00,69.4,41.0,28.61,SW,224,0.0,0.0,35,0.00,,,-99.99,wx200d/1.3,2014-09-02 06:04:00,
2014-09-02 02:10:00,69.4,41.0,28.61,SW,224,0.0,0.0,35,0.00,,,-99.99,wx200d/1.3,2014-09-02 06:10:00,
2014-09-02 02:16:00,69.6,41.0,28.61,SW,224,0.0,0.0,35,0.00,,,-99.99,wx200d/1.3,2014-09-02 06:16:00,
2014-09-02 02:22:00,69.6,41.0,28.61,SW,228,0.0,0.0,35,0.00,,,-99.99,wx200d/1.3,2014-09-02 06:22:00,
2014-09-02 02:28:00,69.6,41.0,28.61,South,191,0.0,0.0,35,0.00,,,-99.99,wx200d/1.3,2014-09-02 06:28:00,
2014-09-02 02:34:00,69.6,41.0,28.61,SW,217,0.0,0.0,35,0.00,,,-99.99,wx200d/1.3,2014-09-02 06:34:00,
2014-09-02 02:40:00,69.6,41.0,28.61,SSW,192,0.0,0.0,35,0.00,,,-99.99,wx200d/1.3,2014-09-02 06:40:00,
2014-09-02 02:46:00,69.6,41.0,28.59,SW,228,0.0,0.0,35,0.00,,,-99.99,wx200d/1.3,2014-09-02 06:46:00,
2014-09-02 02:52:00,69.4,41.0,28.59,WSW,246,0.0,0.0,35,0.00,,,-99.99,wx200d/1.3,2014-09-02 06:52:00,
2014-09-02 02:58:00,69.4,41.0,28.59,South,181,0.0,0.0,36,0.00,,,-99.99,wx200d/1.3,2014-09-02 06:58:00,
2014-09-02 03:04:00,69.4,41.0,28.61,South,173,0.0,0.0,36,0.00,,,-99.99,wx200d/1.3,2014-09-02 07:04:00,
2014-09-02 03:10:00,69.3,41.0,28.61,SSW,195,0.0,2.7,36,0.00,,,-99.99,wx200d/1.3,2014-09-02 07:10:00,
2014-09-02 03:16:00,69.3,41.0,28.61,WSW,246,0.0,0.0,36,0.00,,,-99.99,wx200d/1.3,2014-09-02 07:16:00,
2014-09-02 03:22:00,69.3,41.0,28.61,SSW,192,0.0,3.6,36,0.00,,,-99.99,wx200d/1.3,2014-09-02 07:22:00,
2014-09-02 03:28:00,69.4,41.0,28.61,South,174,0.0,0.0,36,0.00,,,-99.99,wx200d/1.3,2014-09-02 07:28:00,
2014-09-02 03:34:00,69.4,41.0,28.59,South,178,2.7,0.0,36,0.00,,,-99.99,wx200d/1.3,2014-09-02 07:34:00,
2014-09-02 03:40:00,69.4,43.0,28.59,SSW,196,2.2,3.1,37,0.00,,,-99.99,wx200d/1.3,2014-09-02 07:40:00,
2014-09-02 03:46:00,69.4,43.0,28.59,WSW,249,0.0,0.0,37,0.00,,,-99.99,wx200d/1.3,2014-09-02 07:46:00,
2014-09-02 03:52:00,69.3,43.0,28.59,SW,233,0.0,0.0,37,0.00,,,-99.99,wx200d/1.3,2014-09-02 07:52:00,
2014-09-02 03:58:00,69.3,43.0,28.59,SW,230,0.0,0.0,37,0.00,,,-99.99,wx200d/1.3,2014-09-02 07:58:00,
2014-09-02 04:04:00,69.3,43.0,28.59,SW,230,0.0,0.0,37,0.00,,,-99.99,wx200d/1.3,2014-09-02 08:04:00,
2014-09-02 04:10:00,69.3,43.0,28.59,SSW,207,0.0,0.0,37,0.00,,,-99.99,wx200d/1.3,2014-09-02 08:10:00,
2014-09-02 04:16:00,69.3,43.0,28.59,SSW,207,0.0,0.0,37,0.00,,,-99.99,wx200d/1.3,2014-09-02 08:16:00,
2014-09-02 04:22:00,69.3,43.0,28.59,South,190,0.0,0.0,37,0.00,,,-99.99,wx200d/1.3,2014-09-02 08:22:00,
2014-09-02 04:28:00,69.3,43.0,28.59,SSW,192,0.0,3.6,37,0.00,,,-99.99,wx200d/1.3,2014-09-02 08:28:00,
2014-09-02 04:34:00,69.3,43.0,28.59,South,178,2.2,0.0,38,0.00,,,-99.99,wx200d/1.3,2014-09-02 08:34:00,
2014-09-02 04:40:00,69.3,43.0,28.59,West,260,0.0,2.2,38,0.00,,,-99.99,wx200d/1.3,2014-09-02 08:40:00,
2014-09-02 04:46:00,69.3,43.0,28.59,SW,236,0.0,0.0,38,0.00,,,-99.99,wx200d/1.3,2014-09-02 08:46:00,
2014-09-02 04:52:00,69.3,43.0,28.59,South,179,0.0,0.0,38,0.00,,,-99.99,wx200d/1.3,2014-09-02 08:52:00,
2014-09-02 04:58:00,69.1,43.0,28.59,SSW,202,0.0,2.7,38,0.00,,,-99.99,wx200d/1.3,2014-09-02 08:58:00,
2014-09-02 05:04:00,69.1,43.0,28.59,SW,225,0.0,2.7,38,0.00,,,-99.99,wx200d/1.3,2014-09-02 09:04:00,
2014-09-02 05:10:00,68.9,43.0,28.59,SSE,150,2.2,2.7,38,0.00,,,-99.99,wx200d/1.3,2014-09-02 09:10:00,
2014-09-02 05:16:00,68.9,45.0,28.59,SSW,213,0.0,0.0,39,0.00,,,-99.99,wx200d/1.3,2014-09-02 09:16:00,
2014-09-02 05:22:00,68.9,45.0,28.59,SSW,210,0.0,2.7,39,0.00,,,-99.99,wx200d/1.3,2014-09-02 09:22:00,
2014-09-02 05:28:00,68.9,45.0,28.59,SSW,207,0.0,0.0,39,0.00,,,-99.99,wx200d/1.3,2014-09-02 09:28:00,
2014-09-02 05:34:00,68.9,45.0,28.59,SW,219,0.0,0.0,39,0.00,,,-99.99,wx200d/1.3,2014-09-02 09:34:00,
2014-09-02 05:40:00,68.9,45.0,28.59,SSW,198,0.0,2.7,40,0.00,,,-99.99,wx200d/1.3,2014-09-02 09:40:00,
2014-09-02 05:46:00,68.9,45.0,28.59,South,181,0.0,0.0,40,0.00,,,-99.99,wx200d/1.3,2014-09-02 09:46:00,
2014-09-02 05:52:00,68.9,45.0,28.59,West,264,0.0,0.0,40,0.00,,,-99.99,wx200d/1.3,2014-09-02 09:52:00,
2014-09-02 05:58:00,68.9,45.0,28.59,West,281,0.0,0.0,40,0.00,,,-99.99,wx200d/1.3,2014-09-02 09:58:00,
2014-09-02 06:04:00,68.7,43.0,28.59,SW,234,0.0,0.0,40,0.00,,,-99.99,wx200d/1.3,2014-09-02 10:04:00,
2014-09-02 06:10:00,68.7,43.0,28.59,SSW,195,0.0,0.0,41,0.00,,,-99.99,wx200d/1.3,2014-09-02 10:10:00,
2014-09-02 06:16:00,68.7,43.0,28.59,SW,231,0.0,0.0,41,0.00,,,-99.99,wx200d/1.3,2014-09-02 10:16:00,
2014-09-02 06:22:00,68.7,43.0,28.59,WSW,248,0.0,0.0,41,0.00,,,-99.99,wx200d/1.3,2014-09-02 10:22:00,
2014-09-02 06:28:00,68.7,45.0,28.59,WSW,243,0.0,0.0,42,0.00,,,-99.99,wx200d/1.3,2014-09-02 10:28:00,
2014-09-02 06:34:00,68.7,45.0,28.59,WSW,254,0.0,0.0,42,0.00,,,-99.99,wx200d/1.3,2014-09-02 10:34:00,
2014-09-02 06:40:00,68.9,46.0,28.59,SSW,194,0.0,2.7,42,0.00,,,-99.99,wx200d/1.3,2014-09-02 10:40:00,
2014-09-02 06:46:00,68.9,46.0,28.61,NNE,22,0.0,0.0,42,0.00,,,-99.99,wx200d/1.3,2014-09-02 10:46:00,
2014-09-02 06:52:00,69.1,46.0,28.61,SW,223,0.0,0.0,43,0.00,,,-99.99,wx200d/1.3,2014-09-02 10:52:00,
2014-09-02 06:58:00,69.1,46.0,28.61,SW,223,0.0,0.0,43,0.00,,,-99.99,wx200d/1.3,2014-09-02 10:58:00,
2014-09-02 07:04:00,69.3,46.0,28.61,WSW,245,0.0,0.0,44,0.00,,,-99.99,wx200d/1.3,2014-09-02 11:04:00,
2014-09-02 07:10:00,69.3,46.0,28.61,West,262,0.0,0.0,44,0.00,,,-99.99,wx200d/1.3,2014-09-02 11:10:00,
2014-09-02 07:16:00,69.3,46.0,28.61,SSW,203,0.0,2.7,44,0.00,,,-99.99,wx200d/1.3,2014-09-02 11:16:00,
2014-09-02 07:22:00,69.3,46.0,28.61,SW,228,0.0,0.0,44,0.00,,,-99.99,wx200d/1.3,2014-09-02 11:22:00,
2014-09-02 07:28:00,69.4,48.0,28.61,SW,231,0.0,0.0,45,0.00,,,-99.99,wx200d/1.3,2014-09-02 11:28:00,
2014-09-02 07:34:00,69.4,48.0,28.61,SSW,209,2.7,0.0,46,0.00,,,-99.99,wx200d/1.3,2014-09-02 11:34:00,
2014-09-02 07:40:00,69.4,48.0,28.61,WSW,238,0.0,0.0,47,0.00,,,-99.99,wx200d/1.3,2014-09-02 11:40:00,
2014-09-02 07:46:00,69.6,50.0,28.61,SW,234,0.0,0.0,48,0.00,,,-99.99,wx200d/1.3,2014-09-02 11:46:00,
2014-09-02 07:52:00,69.6,50.0,28.61,WNW,283,0.0,0.0,48,0.00,,,-99.99,wx200d/1.3,2014-09-02 11:52:00,
2014-09-02 07:58:00,69.6,50.0,28.61,West,268,0.0,0.0,49,0.00,,,-99.99,wx200d/1.3,2014-09-02 11:58:00,
2014-09-02 08:04:00,69.8,50.0,28.61,SW,227,0.0,0.0,49,0.00,,,-99.99,wx200d/1.3,2014-09-02 12:04:00,
2014-09-02 08:10:00,69.8,50.0,28.61,West,260,0.0,0.0,50,0.00,,,-99.99,wx200d/1.3,2014-09-02 12:10:00,
2014-09-02 08:16:00,70.0,50.0,28.61,WNW,290,0.0,2.7,50,0.00,,,-99.99,wx200d/1.3,2014-09-02 12:16:00,
2014-09-02 08:22:00,70.2,50.0,28.61,South,185,0.0,2.7,51,0.00,,,-99.99,wx200d/1.3,2014-09-02 12:22:00,
2014-09-02 08:28:00,70.3,50.0,28.61,West,262,0.0,0.0,51,0.00,,,-99.99,wx200d/1.3,2014-09-02 12:28:00,
2014-09-02 08:34:00,70.3,52.0,28.61,SW,226,2.7,3.1,52,0.00,,,-99.99,wx200d/1.3,2014-09-02 12:34:00,
2014-09-02 08:40:00,70.5,52.0,28.61,WSW,242,2.2,2.7,52,0.00,,,-99.99,wx200d/1.3,2014-09-02 12:40:00,
2014-09-02 08:46:00,70.7,54.0,28.61,South,177,0.0,3.1,52,0.00,,,-99.99,wx200d/1.3,2014-09-02 12:46:00,
2014-09-02 08:52:00,70.9,54.0,28.61,WSW,239,0.0,2.7,52,0.00,,,-99.99,wx200d/1.3,2014-09-02 12:52:00,
2014-09-02 08:58:00,71.1,54.0,28.61,WNW,300,3.6,0.0,53,0.00,,,-99.99,wx200d/1.3,2014-09-02 12:58:00,
2014-09-02 09:04:00,71.2,54.0,28.61,SW,224,0.0,0.0,52,0.00,,,-99.99,wx200d/1.3,2014-09-02 13:04:00,
2014-09-02 09:10:00,71.4,54.0,28.61,South,190,0.0,0.0,52,0.00,,,-99.99,wx200d/1.3,2014-09-02 13:10:00,
2014-09-02 09:16:00,71.6,54.0,28.61,South,172,0.0,0.0,52,0.00,,,-99.99,wx200d/1.3,2014-09-02 13:16:00,
2014-09-02 09:22:00,71.8,52.0,28.61,WSW,246,0.0,3.6,51,0.00,,,-99.99,wx200d/1.3,2014-09-02 13:22:00,
2014-09-02 09:28:00,71.8,52.0,28.61,South,190,0.0,2.7,50,0.00,,,-99.99,wx200d/1.3,2014-09-02 13:28:00,
2014-09-02 09:34:00,72.1,52.0,28.61,South,176,0.0,2.2,48,0.00,,,-99.99,wx200d/1.3,2014-09-02 13:34:00,
2014-09-02 09:40:00,72.5,52.0,28.61,WSW,246,0.0,2.2,46,0.00,,,-99.99,wx200d/1.3,2014-09-02 13:40:00,
2014-09-02 09:46:00,72.7,52.0,28.61,SSW,194,0.0,0.0,45,0.00,,,-99.99,wx200d/1.3,2014-09-02 13:46:00,
2014-09-02 09:52:00,72.9,48.0,28.61,SSW,210,0.0,2.7,42,0.00,,,-99.99,wx200d/1.3,2014-09-02 13:52:00,
2014-09-02 09:58:00,73.6,46.0,28.61,South,172,0.0,0.0,38,0.00,,,-99.99,wx200d/1.3,2014-09-02 13:58:00,
2014-09-02 10:04:00,74.1,45.0,28.61,SSW,203,0.0,0.0,35,0.00,,,-99.99,wx200d/1.3,2014-09-02 14:04:00,
2014-09-02 10:10:00,75.2,43.0,28.61,NNE,29,0.0,0.0,31,0.00,,,-99.99,wx200d/1.3,2014-09-02 14:10:00,
2014-09-02 10:16:00,76.1,36.0,28.61,North,6,0.0,0.0,23,0.00,,,-99.99,wx200d/1.3,2014-09-02 14:16:00,
2014-09-02 10:22:00,77.2,34.0,28.61,SE,129,2.2,3.1,21,0.00,,,-99.99,wx200d/1.3,2014-09-02 14:22:00,
2014-09-02 10:28:00,78.1,34.0,28.61,WSW,250,2.2,2.2,20,0.00,,,-99.99,wx200d/1.3,2014-09-02 14:28:00,
2014-09-02 10:34:00,78.8,32.0,28.61,South,189,3.1,0.0,17,0.00,,,-99.99,wx200d/1.3,2014-09-02 14:34:00,
2014-09-02 10:40:00,79.5,32.0,28.61,SW,220,3.6,0.0,17,0.00,,,-99.99,wx200d/1.3,2014-09-02 14:40:00,
2014-09-02 10:46:00,79.5,32.0,28.59,West,265,0.0,2.7,17,0.00,,,-99.99,wx200d/1.3,2014-09-02 14:46:00,
2014-09-02 10:52:00,80.1,32.0,28.59,South,186,0.0,6.3,17,0.00,,,-99.99,wx200d/1.3,2014-09-02 14:52:00,
2014-09-02 10:58:00,80.4,32.0,28.59,SSW,204,2.2,3.1,15,0.00,,,-99.99,wx200d/1.3,2014-09-02 14:58:00,
2014-09-02 11:04:00,81.1,32.0,28.59,South,191,0.0,3.1,14,0.00,,,-99.99,wx200d/1.3,2014-09-02 15:04:00,
2014-09-02 11:10:00,81.7,32.0,28.59,WSW,243,2.7,3.6,14,0.00,,,-99.99,wx200d/1.3,2014-09-02 15:10:00,
2014-09-02 11:16:00,82.0,32.0,28.59,South,177,4.5,4.5,14,0.00,,,-99.99,wx200d/1.3,2014-09-02 15:16:00,
2014-09-02 11:22:00,82.6,32.0,28.59,WSW,248,4.5,4.5,14,0.00,,,-99.99,wx200d/1.3,2014-09-02 15:22:00,
2014-09-02 11:28:00,82.0,32.0,28.59,WSW,239,3.1,3.6,14,0.00,,,-99.99,wx200d/1.3,2014-09-02 15:28:00,
2014-09-02 11:34:00,82.0,32.0,28.59,SW,216,0.0,4.0,14,0.00,,,-99.99,wx200d/1.3,2014-09-02 15:34:00,
2014-09-02 11:40:00,82.8,32.0,28.59,SSE,158,2.7,5.4,14,0.00,,,-99.99,wx200d/1.3,2014-09-02 15:40:00,
2014-09-02 11:46:00,83.3,32.0,28.59,SSE,159,2.2,2.2,14,0.00,,,-99.99,wx200d/1.3,2014-09-02 15:46:00,
2014-09-02 11:52:00,83.3,32.0,28.59,NE,49,0.0,0.0,14,0.00,,,-99.99,wx200d/1.3,2014-09-02 15:52:00,
2014-09-02 11:58:00,83.3,32.0,28.59,South,190,2.2,5.4,14,0.00,,,-99.99,wx200d/1.3,2014-09-02 15:58:00,
2014-09-02 12:04:00,82.4,32.0,28.59,WSW,257,0.0,0.0,14,0.00,,,-99.99,wx200d/1.3,2014-09-02 16:04:00,
2014-09-02 12:10:00,82.2,32.0,28.59,SSW,192,0.0,0.0,14,0.00,,,-99.99,wx200d/1.3,2014-09-02 16:10:00,
2014-09-02 12:16:00,82.2,32.0,28.59,South,189,0.0,0.0,14,0.00,,,-99.99,wx200d/1.3,2014-09-02 16:16:00,
2014-09-02 12:26:00,83.1,32.0,28.59,SSW,205,0.0,3.1,14,0.00,,,-99.99,wx200d/1.3,2014-09-02 16:26:00,
2014-09-02 12:32:00,83.5,32.0,28.56,South,183,3.1,3.1,14,0.00,,,-99.99,wx200d/1.3,2014-09-02 16:32:00,
2014-09-02 12:38:00,82.9,32.0,28.56,South,186,3.1,3.1,14,0.00,,,-99.99,wx200d/1.3,2014-09-02 16:38:00,
2014-09-02 12:44:00,82.8,32.0,28.56,WNW,293,3.1,3.1,14,0.00,,,-99.99,wx200d/1.3,2014-09-02 16:44:00,
2014-09-02 12:48:00,82.8,32.0,28.56,SW,216,3.1,3.1,14,0.00,,,-99.99,wx200d/1.3,2014-09-02 16:48:00,
2014-09-02 12:54:00,83.1,32.0,28.56,NW,304,3.1,3.1,14,0.00,,,-99.99,wx200d/1.3,2014-09-02 16:54:00,
2014-09-02 13:00:00,82.6,32.0,28.56,West,277,4.5,4.5,14,0.00,,,-99.99,wx200d/1.3,2014-09-02 17:00:00,
2014-09-02 13:06:00,82.8,32.0,28.56,WSW,256,2.7,5.4,14,0.00,,,-99.99,wx200d/1.3,2014-09-02 17:06:00,
2014-09-02 13:12:00,83.5,32.0,28.56,NW,304,0.0,0.0,14,0.00,,,-99.99,wx200d/1.3,2014-09-02 17:12:00,
2014-09-02 13:18:00,83.8,32.0,28.56,West,272,3.1,3.1,14,0.00,,,-99.99,wx200d/1.3,2014-09-02 17:18:00,
2014-09-02 13:24:00,83.1,32.0,28.56,SSE,168,3.1,4.0,14,0.00,,,-99.99,wx200d/1.3,2014-09-02 17:24:00,
2014-09-02 13:34:00,83.1,32.0,28.56,South,178,0.0,2.7,14,0.00,,,-99.99,wx200d/1.3,2014-09-02 17:34:00,
2014-09-02 13:36:00,83.3,32.0,28.56,East,93,4.9,4.9,14,0.00,,,-99.99,wx200d/1.3,2014-09-02 17:36:00,
2014-09-02 13:42:00,82.9,32.0,28.56,SSE,147,3.6,4.9,14,0.00,,,-99.99,wx200d/1.3,2014-09-02 17:42:00,
2014-09-02 13:48:00,82.6,32.0,28.56,WSW,256,4.5,4.5,14,0.00,,,-99.99,wx200d/1.3,2014-09-02 17:48:00,
2014-09-02 13:54:00,81.9,32.0,28.56,South,182,3.1,4.9,14,0.00,,,-99.99,wx200d/1.3,2014-09-02 17:54:00,
2014-09-02 13:58:00,81.3,32.0,28.56,SW,222,2.2,0.0,14,0.00,,,-99.99,wx200d/1.3,2014-09-02 17:58:00,
2014-09-02 14:02:00,80.8,32.0,28.56,NW,307,0.0,4.0,14,0.00,,,-99.99,wx200d/1.3,2014-09-02 18:02:00,
2014-09-02 14:08:00,79.5,32.0,28.56,North,8,2.7,3.1,15,0.00,,,-99.99,wx200d/1.3,2014-09-02 18:08:00,
2014-09-02 14:14:00,77.5,32.0,28.56,North,0,0.0,3.1,15,0.00,,,-99.99,wx200d/1.3,2014-09-02 18:14:00,
2014-09-02 14:20:00,75.7,32.0,28.56,NNW,344,0.0,0.0,18,0.00,,,-99.99,wx200d/1.3,2014-09-02 18:20:00,
2014-09-02 14:26:00,74.8,32.0,28.56,NW,310,0.0,0.0,21,0.00,,,-99.99,wx200d/1.3,2014-09-02 18:26:00,
2014-09-02 14:30:00,74.5,32.0,28.56,South,181,0.0,2.7,21,0.00,,,-99.99,wx200d/1.3,2014-09-02 18:30:00,
2014-09-02 14:32:00,74.3,32.0,28.56,South,183,0.0,0.0,21,0.00,,,-99.99,wx200d/1.3,2014-09-02 18:32:00,
2014-09-02 14:38:00,74.5,34.0,28.56,South,177,0.0,3.1,22,0.00,,,-99.99,wx200d/1.3,2014-09-02 18:38:00,
2014-09-02 14:44:00,75.6,37.0,28.56,SSE,148,0.0,4.0,26,0.00,,,-99.99,wx200d/1.3,2014-09-02 18:44:00,
2014-09-02 14:46:00,75.7,39.0,28.56,South,184,2.7,3.6,27,0.00,,,-99.99,wx200d/1.3,2014-09-02 18:46:00,
2014-09-02 14:52:00,76.3,37.0,28.56,SW,219,0.0,0.0,24,0.00,,,-99.99,wx200d/1.3,2014-09-02 18:52:00,
2014-09-02 14:58:00,77.2,36.0,28.56,WSW,257,0.0,3.1,23,0.00,,,-99.99,wx200d/1.3,2014-09-02 18:58:00,
2014-09-02 15:02:00,77.2,36.0,28.53,SSW,203,0.0,0.0,22,0.00,,,-99.99,wx200d/1.3,2014-09-02 19:02:00,
2014-09-02 15:08:00,77.4,34.0,28.53,South,177,0.0,2.7,21,0.00,,,-99.99,wx200d/1.3,2014-09-02 19:08:00,
2014-09-02 15:12:00,77.2,36.0,28.53,WSW,240,0.0,0.0,22,0.00,,,-99.99,wx200d/1.3,2014-09-02 19:12:00,
2014-09-02 15:16:00,77.7,36.0,28.53,West,267,0.0,2.2,23,0.00,,,-99.99,wx200d/1.3,2014-09-02 19:16:00,
2014-09-02 15:18:00,77.9,37.0,28.53,NW,318,0.0,0.0,23,0.00,,,-99.99,wx200d/1.3,2014-09-02 19:18:00,
2014-09-02 15:20:00,78.1,37.0,28.53,SW,221,0.0,2.7,23,0.00,,,-99.99,wx200d/1.3,2014-09-02 19:20:00,
2014-09-02 15:26:00,78.3,36.0,28.53,WSW,254,0.0,0.0,21,0.00,,,-99.99,wx200d/1.3,2014-09-02 19:26:00,
2014-09-02 15:36:00,78.8,34.0,28.53,South,173,2.2,3.6,20,0.00,,,-99.99,wx200d/1.3,2014-09-02 19:36:00,
2014-09-02 15:42:00,78.8,34.0,28.53,SSW,202,3.1,0.0,20,0.00,,,-99.99,wx200d/1.3,2014-09-02 19:42:00,
2014-09-02 15:44:00,78.8,34.0,28.53,SSW,210,0.0,0.0,20,0.00,,,-99.99,wx200d/1.3,2014-09-02 19:44:00,
2014-09-02 15:50:00,78.8,34.0,28.53,SSW,195,2.2,3.6,20,0.00,,,-99.99,wx200d/1.3,2014-09-02 19:50:00,
2014-09-02 15:56:00,78.6,32.0,28.53,South,177,2.7,4.0,18,0.00,,,-99.99,wx200d/1.3,2014-09-02 19:56:00,
2014-09-02 16:02:00,78.4,32.0,28.53,WSW,237,2.7,0.0,18,0.00,,,-99.99,wx200d/1.3,2014-09-02 20:02:00,
2014-09-02 16:08:00,78.6,34.0,28.53,NE,34,0.0,0.0,20,0.00,,,-99.99,wx200d/1.3,2014-09-02 20:08:00,
2014-09-02 16:14:00,78.6,34.0,28.53,South,183,0.0,3.1,20,0.00,,,-99.99,wx200d/1.3,2014-09-02 20:14:00,
2014-09-02 16:24:00,78.8,34.0,28.50,West,260,0.0,0.0,20,0.00,,,-99.99,wx200d/1.3,2014-09-02 20:24:00,
2014-09-02 16:30:00,79.2,34.0,28.50,South,187,0.0,0.0,20,0.00,,,-99.99,wx200d/1.3,2014-09-02 20:30:00,
2014-09-02 16:36:00,79.3,34.0,28.53,SSW,193,2.2,3.1,20,0.00,,,-99.99,wx200d/1.3,2014-09-02 20:36:00,
2014-09-02 16:42:00,79.2,32.0,28.53,SSW,196,0.0,3.1,17,0.00,,,-99.99,wx200d/1.3,2014-09-02 20:42:00,
2014-09-02 16:48:00,79.3,32.0,28.53,WSW,249,0.0,0.0,17,0.00,,,-99.99,wx200d/1.3,2014-09-02 20:48:00,
2014-09-02 16:54:00,79.3,34.0,28.53,SSW,209,2.2,3.6,20,0.00,,,-99.99,wx200d/1.3,2014-09-02 20:54:00,
2014-09-02 17:00:00,79.3,32.0,28.53,South,178,2.2,2.7,17,0.00,,,-99.99,wx200d/1.3,2014-09-02 21:00:00,
2014-09-02 17:06:00,79.5,32.0,28.53,WNW,290,3.1,3.1,17,0.00,,,-99.99,wx200d/1.3,2014-09-02 21:06:00,
2014-09-02 17:12:00,79.3,32.0,28.53,South,187,0.0,2.7,17,0.00,,,-99.99,wx200d/1.3,2014-09-02 21:12:00,
2014-09-02 17:18:00,79.2,32.0,28.53,SSW,205,0.0,0.0,17,0.00,,,-99.99,wx200d/1.3,2014-09-02 21:18:00,
2014-09-02 17:24:00,78.8,32.0,28.53,SSW,196,0.0,0.0,17,0.00,,,-99.99,wx200d/1.3,2014-09-02 21:24:00,
2014-09-02 17:30:00,78.4,34.0,28.53,West,259,0.0,0.0,20,0.00,,,-99.99,wx200d/1.3,2014-09-02 21:30:00,
2014-09-02 17:36:00,78.1,34.0,28.53,SW,218,0.0,0.0,20,0.00,,,-99.99,wx200d/1.3,2014-09-02 21:36:00,
2014-09-02 17:42:00,77.9,34.0,28.53,SSW,198,2.2,0.0,20,0.00,,,-99.99,wx200d/1.3,2014-09-02 21:42:00,
2014-09-02 17:48:00,78.3,34.0,28.50,South,183,2.2,2.7,20,0.00,,,-99.99,wx200d/1.3,2014-09-02 21:48:00,
2014-09-02 17:54:00,78.4,34.0,28.50,WSW,250,0.0,0.0,20,0.00,,,-99.99,wx200d/1.3,2014-09-02 21:54:00,
2014-09-02 18:00:00,78.1,34.0,28.50,South,185,0.0,3.1,20,0.00,,,-99.99,wx200d/1.3,2014-09-02 22:00:00,
2014-09-02 18:06:00,78.3,34.0,28.50,SSW,207,2.2,0.0,20,0.00,,,-99.99,wx200d/1.3,2014-09-02 22:06:00,
2014-09-02 18:12:00,78.3,34.0,28.50,West,265,0.0,0.0,20,0.00,,,-99.99,wx200d/1.3,2014-09-02 22:12:00,
2014-09-02 18:20:00,77.4,34.0,28.50,West,264,0.0,0.0,21,0.00,,,-99.99,wx200d/1.3,2014-09-02 22:20:00,
2014-09-02 18:26:00,76.8,36.0,28.50,SW,225,0.0,0.0,22,0.00,,,-99.99,wx200d/1.3,2014-09-02 22:26:00,
2014-09-02 18:32:00,76.5,36.0,28.50,WSW,239,0.0,0.0,22,0.00,,,-99.99,wx200d/1.3,2014-09-02 22:32:00,
2014-09-02 18:38:00,75.9,36.0,28.50,SW,235,0.0,0.0,23,0.00,,,-99.99,wx200d/1.3,2014-09-02 22:38:00,
2014-09-02 18:44:00,75.6,36.0,28.50,SW,235,0.0,0.0,24,0.00,,,-99.99,wx200d/1.3,2014-09-02 22:44:00,
2014-09-02 18:50:00,75.4,37.0,28.50,SW,235,0.0,0.0,25,0.00,,,-99.99,wx200d/1.3,2014-09-02 22:50:00,
2014-09-02 18:54:00,75.2,37.0,28.50,SW,235,0.0,0.0,26,0.00,,,-99.99,wx200d/1.3,2014-09-02 22:54:00,
2014-09-02 19:00:00,74.8,39.0,28.50,SW,235,0.0,0.0,28,0.00,,,-99.99,wx200d/1.3,2014-09-02 23:00:00,
2014-09-02 19:02:00,74.8,39.0,28.50,SW,235,0.0,0.0,28,0.00,,,-99.99,wx200d/1.3,2014-09-02 23:02:00,
2014-09-02 19:08:00,74.5,41.0,28.50,SW,235,0.0,0.0,29,0.00,,,-99.99,wx200d/1.3,2014-09-02 23:08:00,
2014-09-02 19:14:00,74.3,41.0,28.50,SW,235,0.0,0.0,30,0.00,,,-99.99,wx200d/1.3,2014-09-02 23:14:00,
2014-09-02 19:18:00,74.1,41.0,28.50,SW,225,0.0,0.0,30,0.00,,,-99.99,wx200d/1.3,2014-09-02 23:18:00,
2014-09-02 19:24:00,74.1,41.0,28.50,SSW,210,0.0,0.0,31,0.00,,,-99.99,wx200d/1.3,2014-09-02 23:24:00,
2014-09-02 19:30:00,73.9,41.0,28.50,SSW,211,0.0,0.0,31,0.00,,,-99.99,wx200d/1.3,2014-09-02 23:30:00,
2014-09-02 19:36:00,73.8,41.0,28.50,SW,214,0.0,0.0,31,0.00,,,-99.99,wx200d/1.3,2014-09-02 23:36:00,
2014-09-02 19:42:00,73.6,41.0,28.50,SW,214,0.0,0.0,31,0.00,,,-99.99,wx200d/1.3,2014-09-02 23:42:00,
2014-09-02 19:48:00,73.6,41.0,28.47,SW,214,0.0,0.0,31,0.00,,,-99.99,wx200d/1.3,2014-09-02 23:48:00,
2014-09-02 19:54:00,73.4,41.0,28.47,SW,214,0.0,0.0,31,0.00,,,-99.99,wx200d/1.3,2014-09-02 23:54:00,
2014-09-02 20:00:00,73.0,41.0,28.47,SSW,212,0.0,0.0,31,0.00,,,-99.99,wx200d/1.3,2014-09-03 00:00:00,
2014-09-02 20:02:00,73.0,41.0,28.50,SSW,213,0.0,0.0,31,0.00,,,-99.99,wx200d/1.3,2014-09-03 00:02:00,
2014-09-02 20:08:00,72.7,41.0,28.50,SSW,213,0.0,0.0,31,0.00,,,-99.99,wx200d/1.3,2014-09-03 00:08:00,
2014-09-02 20:14:00,72.5,41.0,28.50,West,269,0.0,0.0,31,0.00,,,-99.99,wx200d/1.3,2014-09-03 00:14:00,
2014-09-02 20:20:00,72.3,39.0,28.47,West,269,0.0,0.0,31,0.00,,,-99.99,wx200d/1.3,2014-09-03 00:20:00,
2014-09-02 20:26:00,72.1,39.0,28.47,West,269,0.0,0.0,31,0.00,,,-99.99,wx200d/1.3,2014-09-03 00:26:00,
2014-09-02 20:32:00,72.0,39.0,28.47,NNW,330,0.0,0.0,31,0.00,,,-99.99,wx200d/1.3,2014-09-03 00:32:00,
2014-09-02 20:38:00,72.0,39.0,28.47,NNE,13,0.0,0.0,31,0.00,,,-99.99,wx200d/1.3,2014-09-03 00:38:00,
2014-09-02 20:44:00,71.8,39.0,28.47,NNE,28,0.0,0.0,31,0.00,,,-99.99,wx200d/1.3,2014-09-03 00:44:00,
2014-09-02 20:50:00,71.8,39.0,28.47,WNW,301,0.0,0.0,31,0.00,,,-99.99,wx200d/1.3,2014-09-03 00:50:00,
2014-09-02 20:56:00,71.8,41.0,28.47,SSW,193,0.0,0.0,32,0.00,,,-99.99,wx200d/1.3,2014-09-03 00:56:00,
2014-09-02 21:02:00,72.0,41.0,28.47,SW,217,2.7,4.0,32,0.00,,,-99.99,wx200d/1.3,2014-09-03 01:02:00,
2014-09-02 21:08:00,72.1,41.0,28.47,SSW,211,0.0,2.2,32,0.00,,,-99.99,wx200d/1.3,2014-09-03 01:08:00,
2014-09-02 21:14:00,72.3,41.0,28.47,SSW,199,0.0,0.0,33,0.00,,,-99.99,wx200d/1.3,2014-09-03 01:14:00,
2014-09-02 21:20:00,72.5,43.0,28.47,South,186,2.2,0.0,33,0.00,,,-99.99,wx200d/1.3,2014-09-03 01:20:00,
2014-09-02 21:24:00,72.7,43.0,28.47,SSW,200,3.1,0.0,33,0.00,,,-99.99,wx200d/1.3,2014-09-03 01:24:00,
2014-09-02 21:30:00,72.7,43.0,28.47,South,188,3.1,7.6,34,0.00,,,-99.99,wx200d/1.3,2014-09-03 01:30:00,
2014-09-02 21:36:00,72.9,43.0,28.47,West,265,3.1,3.1,34,0.00,,,-99.99,wx200d/1.3,2014-09-03 01:36:00,